Regional Weather Roundup
Issued by NWS

Home | Current Version | Previous Version | Text Only | Print | Product List | Glossary On
Versions: 1 2 3 4 5 6 7 8 9 10 11 12 13 14 15 16 17 18 19 20 21 22 23 24 25 26 27
000
ASUS42 KFFC 241803
RWRGA
WEATHER ROUNDUP FOR GEORGIA
NATIONAL WEATHER SERVICE PEACHTREE CITY GA
200 PM EDT FRI OCT 24 2014

NOTE: "FAIR" INDICATES FEW OR NO CLOUDS BELOW 12,000 FEET WITH NO
SIGNIFICANT WEATHER AND/OR OBSTRUCTIONS TO VISIBILITY.

* = USE WITH CAUTION. THE STATIONS MARKED WITH AN ASTERISK MAY NOT
REPORT WEATHER SUCH AS PRECIPITATION, FOG, OR THUNDER AND ARE NOT
QUALITY CONTROLLED BY NWS.

THE REMARK "TC" DENOTES TEMPERATURE READING IN DEGREES CELSIUS.

GAZ001>058-241900-
NORTH GEORGIA

CITY           SKY/WX    TMP DP  RH WIND       PRES   REMARKS
ATLANTA        MOSUNNY   70  45  40 CALM      30.04F
6HR MIN TEMP:  51; 6HR MAX TEMP:  70;

ATHENS         MOSUNNY   71  44  37 CALM      30.03F
6HR MIN TEMP:  44; 6HR MAX TEMP:  71;

CHAMBLEE       MOSUNNY   68  46  45 VRB3      30.04F
6HR MIN TEMP:  47; 6HR MAX TEMP:  70;

PEACHTREE CITY SUNNY     71  44  37 NW3       30.04F
6HR MIN TEMP:  42; 6HR MAX TEMP:  71;

ROME           SUNNY     71  45  39 VRB3      30.04F
6HR MIN TEMP:  48; 6HR MAX TEMP:  72;

WEST ATLANTA   MOSUNNY   69  44  40 W6        30.04F
6HR MIN TEMP:  47; 6HR MAX TEMP:  69;

GAINESVILLE    SUNNY     67  40  37 VRB6      30.05F
6HR MIN TEMP:  47; 6HR MAX TEMP:  68;

CARTERSVILLE   SUNNY     68  46  45 S3        30.05F
6HR MIN TEMP:  46; 6HR MAX TEMP:  68;



CITY           SKY/WX    TMP DP  RH WIND       PRES   REMARKS
DALTON*        SUNNY     66  45  45 N7        30.05F
LAWRENCEVILLE* SUNNY     70  39  32 CALM      30.04F
MARIETTA       MOSUNNY   70  45  41 W5        30.04F
KENNESAW*      SUNNY     68  45  42 W6        30.07F
$$

GAZ059>098-102>109-241900-
CENTRAL GEORGIA

CITY           SKY/WX    TMP DP  RH WIND       PRES   REMARKS
AUGUSTA-BUSH   SUNNY     72  43  35 W3        30.02F
6HR MIN TEMP:  44; 6HR MAX TEMP:  73;

AUGUSTA-DANIEL SUNNY     73  43  33 CALM      30.03F
6HR MIN TEMP:  51; 6HR MAX TEMP:  73;

COLUMBUS       SUNNY     69  45  41 NW3       30.03F
6HR MIN TEMP:  46; 6HR MAX TEMP:  69; 6HR PCP: TRACE;

MACON          MOSUNNY   72  42  34 VRB5      30.01F
6HR MIN TEMP:  43; 6HR MAX TEMP:  72;

ROBINS AFB     MOSUNNY   70  44  38 E1        30.01F


CITY           SKY/WX    TMP DP  RH WIND       PRES   REMARKS
LAGRANGE*      SUNNY     71  46  41 CALM      30.04F
SYLVANIA*      SUNNY     77  47  34 CALM      30.04F
MILLEDGEVILLE* MOSUNNY   72  52  49 CALM      30.02F
$$

GAZ099>101-110>166-241900-
SOUTH GEORGIA

CITY           SKY/WX    TMP DP  RH WIND       PRES   REMARKS
SAVANNAH       MOSUNNY   73  42  32 CALM      30.02F
6HR MIN TEMP:  50; 6HR MAX TEMP:  75;

VALDOSTA       MOSUNNY   74  42  31 CALM      30.01F
6HR MIN TEMP:  46; 6HR MAX TEMP:  74;

ALMA           SUNNY     73  42  32 S5        30.02F
6HR MIN TEMP:  47; 6HR MAX TEMP:  73;

ST SIMONS      SUNNY     72  48  42 VRB7      30.02F
6HR MIN TEMP:  52; 6HR MAX TEMP:  72;

FT STEWART     SUNNY     72  45  37 NE7       30.01F
ALBANY         SUNNY     75  43  31 CALM      30.03F
HUNTER AFB     SUNNY     72  45  37 S3        30.00F
MOODY AFB      SUNNY     73  42  32 N5        30.01F
BRUNSWICK      SUNNY     73  45  35 N5        30.02F


CITY           SKY/WX    TMP DP  RH WIND       PRES   REMARKS
BAINBRIDGE*    SUNNY     79  50  36 W3        30.01F
MOULTRIE*      SUNNY     72  45  37 N6        30.03F
VIDALIA*       SUNNY     72  46  40 E3        30.03F
WAYCROSS*      SUNNY     76  47  35 SW3       30.01F
DOUGLAS*       SUNNY     75  41  29 E7        30.03F
$$



USA.gov is the U.S. government's official web portal to all federal, state and local government web resources and services.